Вернуться в каталог

SL-14 R/B

АктивенPO
NORAD 14820·ROCKET BODY·🇷🇺 Russia

Запущен Mar 15, 1984 с Plesetsk Cosmodrome

Loading…

Ближайшие Пролёты (ближайшие 24 часа)

TLE

СвежийSource: Space-Track

Эпоха: Sep 14, 2026, 20:01 UTC

1 14820U 84027B   26257.83453919  .00000327  00000-0  34387-4 0  9991
2 14820  82.5389  67.6284 0019369  68.8867 291.4417 14.86110613275728

Отслеживайте SL-14 R/B в реальном времени с AllMySat

Download on the App Store